Date,TemperatureHighF,TemperatureAvgF,TemperatureLowF,DewpointHighF,DewpointAvgF,DewpointLowF,HumidityHigh,HumidityAvg,HumidityLow,PressureMaxIn,PressureMinIn,WindSpeedMaxMPH,WindSpeedAvgMPH,GustSpeedMaxMPH,PrecipitationSumIn
2013-1-1,78,65,54,63,59,54,100,84,54,30.22,30.06,8,3,14,0.00
2013-1-2,81,68,57,70,63,57,100,87,49,30.09,29.99,7,4,12,0.00
2013-1-3,79,67,60,72,65,60,100,94,60,30.17,30.03,9,2,15,0.00
2013-1-4,64,60,57,64,60,57,100,100,98,30.27,30.14,10,6,15,0.00
2013-1-5,80,66,57,67,61,56,100,85,56,30.29,30.18,9,5,14,0.00
2013-1-6,80,69,64,73,67,64,100,94,63,30.22,30.06,10,3,15,0.00
2013-1-7,69,65,60,67,62,58,100,92,77,30.21,30.10,13,7,19,0.00
2013-1-8,84,72,63,72,67,63,100,87,56,30.22,30.12,8,4,14,0.00
2013-1-9,87,75,68,75,69,65,100,84,49,30.29,30.18,14,6,19,0.00
2013-1-10,85,74,67,74,67,62,100,83,48,30.29,30.20,18,6,26,0.00
2013-1-11,85,72,65,74,67,65,100,87,52,30.27,30.14,11,4,18,0.00
2013-1-12,85,72,64,73,65,62,100,81,47,30.19,30.09,12,4,18,0.00
2013-1-13,86,72,62,70,65,60,100,83,43,30.16,30.07,9,5,17,0.00
2013-1-14,82,70,60,69,63,60,100,82,54,30.20,30.12,11,4,16,0.00
2013-1-15,82,70,60,72,64,60,100,86,53,30.16,30.06,8,2,12,0.00
2013-1-16,82,71,63,70,63,58,100,80,46,30.12,30.01,7,3,12,0.00
2013-1-17,76,64,56,72,61,48,100,91,71,30.14,30.01,16,8,27,0.00
2013-1-18,66,54,40,61,49,37,100,85,66,30.29,30.13,14,8,24,0.00
2013-1-19,74,64,54,65,60,54,100,88,66,30.27,30.14,13,5,21,0.00
2013-1-20,75,66,60,65,62,60,100,90,67,30.17,30.04,8,5,13,0.00
2013-1-21,74,66,60,69,62,57,100,89,72,30.10,30.00,7,4,10,0.00
2013-1-22,67,58,48,58,48,38,98,71,35,30.27,30.06,12,6,20,0.00
2013-1-23,71,57,46,48,42,33,100,63,25,30.35,30.26,9,4,15,0.00
2013-1-24,74,58,45,54,49,45,100,78,38,30.33,30.22,8,3,12,0.00
2013-1-25,76,61,48,61,52,48,100,76,39,30.32,30.18,8,3,15,0.00
2013-1-26,76,62,47,59,54,47,100,79,43,30.28,30.16,7,2,12,0.00
2013-1-27,79,65,52,65,57,52,100,79,41,30.31,30.22,10,4,16,0.00
2013-1-28,84,69,60,70,63,59,100,85,45,30.32,30.21,14,5,21,0.00
2013-1-29,85,71,62,73,66,62,100,86,49,30.24,30.10,14,6,21,0.00
2013-1-30,83,72,64,70,66,63,100,84,51,30.12,29.94,17,8,30,0.00
2013-1-31,69,59,46,69,43,31,100,59,29,30.24,29.95,12,7,20,0.00
2013-2-1,69,54,42,47,37,25,92,58,20,30.36,30.22,11,5,18,0.00
2013-2-2,74,58,46,54,45,40,98,65,32,30.30,30.15,10,4,13,0.00
2013-2-3,73,57,44,53,47,41,100,75,44,30.21,30.08,11,4,17,0.00
2013-2-4,72,57,44,56,45,34,100,71,26,30.15,30.03,7,2,12,0.00
2013-2-5,79,61,44,58,50,42,100,70,35,30.10,29.99,6,2,10,0.00
2013-2-6,80,68,57,63,59,56,100,76,46,30.12,30.03,9,2,13,0.00
2013-2-7,82,70,60,70,63,56,100,81,47,30.08,29.90,14,7,22,0.00
2013-2-8,82,70,57,69,62,54,100,80,39,30.09,29.89,9,6,15,0.00
2013-2-9,79,64,54,59,56,52,100,79,39,30.19,30.06,10,6,16,0.00
2013-2-10,82,68,58,64,60,58,100,78,46,30.26,30.16,12,6,23,0.00
2013-2-11,83,70,59,68,62,59,100,80,47,30.22,30.08,11,4,17,0.00
2013-2-12,83,72,63,72,66,62,100,85,51,30.12,29.96,8,5,16,0.00
2013-2-13,84,73,62,74,68,61,100,87,57,30.00,29.88,15,7,26,0.00
2013-2-14,68,62,60,65,62,60,100,99,83,30.05,29.94,10,3,17,0.00
2013-2-15,69,61,57,61,59,57,100,94,68,30.08,29.97,7,2,10,0.00
2013-2-16,69,57,51,57,50,39,100,79,50,30.12,29.94,16,7,27,0.00
2013-2-17,56,47,38,39,27,20,82,48,25,30.33,30.12,15,7,26,0.00
2013-2-18,72,54,35,50,42,34,100,69,38,30.35,30.21,13,5,27,0.00
2013-2-19,78,63,49,61,54,48,100,76,47,30.21,30.08,12,4,21,0.00
2013-2-20,80,67,59,67,62,59,100,87,54,30.13,30.01,7,3,12,0.00
2013-2-21,84,70,58,68,62,58,100,81,45,30.12,29.99,8,4,11,0.00
2013-2-22,87,73,63,72,66,60,100,81,42,30.09,29.98,15,5,24,0.00
2013-2-23,86,75,69,73,70,65,100,85,52,30.03,29.90,11,6,21,0.00
2013-2-24,84,74,68,72,69,64,100,87,52,29.98,29.90,10,4,16,0.00
2013-2-25,85,75,67,73,67,64,100,81,51,29.93,29.79,10,4,17,0.00
2013-2-26,77,71,64,75,70,64,100,97,77,29.90,29.75,14,7,25,0.00
2013-2-27,75,66,58,65,60,53,100,83,49,29.99,29.89,9,5,17,0.00
2013-2-28,73,62,54,59,54,51,100,77,46,30.02,29.92,13,6,22,0.00
2013-3-1,62,56,51,54,46,41,94,70,51,30.03,29.93,11,6,17,0.00
2013-3-2,58,52,44,45,41,38,90,67,52,30.07,29.98,14,6,25,0.00
2013-3-3,55,46,38,44,38,33,95,73,53,30.17,30.00,18,7,29,0.00
2013-3-4,69,51,38,47,37,30,97,64,26,30.23,30.12,9,3,17,0.00
2013-3-5,77,59,44,60,49,41,100,73,35,30.17,30.05,9,5,17,0.00
2013-3-6,68,59,48,64,48,34,100,71,29,30.14,29.97,16,9,29,0.00
2013-3-7,68,53,40,47,40,36,93,66,34,30.22,30.11,12,5,20,0.00
2013-3-8,77,59,44,52,44,29,100,66,17,30.23,30.11,8,4,17,0.00
2013-3-9,77,63,50,54,51,47,100,70,38,30.22,30.13,9,5,13,0.00
2013-3-10,83,67,55,58,56,53,100,71,36,30.18,30.06,13,6,21,0.00
2013-3-11,79,68,58,62,59,57,100,76,48,30.12,29.93,18,6,27,0.00
2013-3-12,69,65,56,69,63,56,100,95,81,30.03,29.90,12,8,20,0.00
2013-3-13,75,61,49,56,46,36,100,66,24,30.19,24.77,13,7,22,0.00
2013-3-14,70,57,46,49,39,29,100,58,22,30.27,30.16,12,6,21,0.00
2013-3-15,73,57,41,51,42,34,100,65,29,30.30,30.16,11,4,19,0.00
2013-3-16,79,61,45,56,48,41,100,68,26,30.21,30.07,9,3,15,0.00
2013-3-17,76,64,50,62,56,50,100,77,48,30.15,30.02,10,3,18,0.00
2013-3-18,78,67,60,71,65,60,100,92,63,30.07,29.92,11,4,21,0.00
2013-3-19,85,72,62,71,64,59,100,81,44,30.03,29.90,11,3,18,0.00
2013-3-20,74,67,62,70,64,59,100,91,63,29.98,29.82,15,5,29,0.00
2013-3-21,72,61,50,62,44,32,100,62,23,29.99,29.88,10,6,17,0.00
2013-3-22,77,61,45,70,54,41,100,81,40,30.01,29.90,10,4,17,0.00
2013-3-23,85,73,64,77,68,64,100,88,56,29.99,29.80,13,6,21,0.00
2013-3-24,81,75,71,77,73,69,100,94,69,29.86,29.67,16,9,30,0.00
2013-3-25,72,65,54,71,51,35,100,67,27,30.05,29.77,13,8,23,0.00
2013-3-26,60,53,46,49,38,30,86,59,39,30.25,30.05,16,10,27,0.00
2013-3-27,64,50,39,42,37,31,95,64,31,30.32,30.21,9,6,19,0.00
2013-3-28,72,56,42,47,39,28,100,62,21,30.31,30.19,8,4,22,0.00
2013-3-29,76,61,45,54,43,32,100,60,20,30.34,30.20,9,3,15,0.00
2013-3-30,78,64,50,58,52,47,100,70,37,30.27,30.13,9,4,16,0.00
2013-3-31,81,68,55,61,55,-100,100,69,36,30.19,30.01,8,4,18,0.00
2013-4-1,82,71,62,70,64,60,100,82,48,30.04,29.96,12,6,21,0.00
2013-4-2,86,72,62,67,62,54,100,74,35,30.10,30.00,7,3,12,0.00
2013-4-3,87,74,63,72,65,60,100,77,44,30.08,29.94,15,6,22,0.00
2013-4-4,70,68,66,70,68,66,100,100,96,30.05,29.88,13,6,19,0.00
2013-4-5,75,68,62,72,65,58,100,90,56,29.97,29.83,16,7,35,0.00
2013-4-6,81,66,55,62,58,54,100,78,45,30.11,29.97,11,7,20,0.00
2013-4-7,84,71,60,66,61,56,100,75,41,30.16,30.05,8,5,13,0.00
2013-4-8,86,74,63,67,61,53,100,70,34,30.14,30.06,8,4,16,0.00
2013-4-9,85,73,62,73,64,62,100,78,49,30.17,30.08,14,5,20,0.00
2013-4-10,90,75,62,72,65,61,100,76,41,30.13,29.97,11,4,18,0.00
2013-4-11,88,77,71,76,72,67,100,86,51,30.02,29.85,15,9,24,0.00
2013-4-12,83,77,73,77,74,69,100,90,66,29.93,29.84,13,8,23,0.00
2013-4-13,87,77,69,75,69,65,100,79,49,29.98,29.89,8,3,14,0.00
2013-4-14,89,78,69,75,70,62,100,81,54,30.01,29.85,21,7,35,0.00
2013-4-15,90,76,65,76,67,64,100,77,45,30.09,29.94,8,4,14,0.00
2013-4-16,90,78,69,76,70,66,100,79,46,30.15,30.03,11,6,20,0.00
2013-4-17,88,76,66,73,66,59,100,75,38,30.14,30.02,12,6,18,0.00
2013-4-18,90,77,66,74,68,65,100,78,45,30.07,29.94,11,4,22,0.00
2013-4-19,88,78,70,78,70,64,100,81,48,30.03,29.93,13,6,24,0.00
2013-4-20,77,71,65,73,68,64,100,90,69,30.14,29.97,10,6,19,0.00
2013-4-21,84,71,61,73,67,61,100,90,60,30.14,30.01,9,6,16,0.00
2013-4-22,81,72,68,72,69,66,100,91,62,30.09,29.98,14,6,26,0.00
2013-4-23,84,73,64,68,65,60,100,78,47,30.12,30.02,14,8,21,0.00
2013-4-24,88,74,61,68,62,56,100,73,36,30.16,30.07,8,3,15,0.00
2013-4-25,88,75,63,71,63,54,100,71,32,30.22,30.11,8,3,11,0.00
2013-4-26,88,76,64,71,64,61,100,71,41,30.25,30.15,9,3,14,0.00
2013-4-27,88,75,67,73,67,60,100,78,40,30.24,30.09,10,5,19,0.00
2013-4-28,88,76,64,69,64,57,100,71,38,30.14,29.97,12,6,20,0.00
2013-4-29,87,75,65,71,66,60,100,76,41,30.04,29.90,13,4,19,0.00
2013-4-30,92,75,68,74,68,63,100,84,39,30.02,29.90,15,5,21,0.00
2013-5-1,76,71,67,76,71,67,100,100,100,30.01,29.93,7,4,14,0.00
2013-5-2,76,70,64,75,70,64,100,98,88,29.97,29.82,11,4,15,0.00
2013-5-3,84,73,66,75,69,65,100,89,53,29.85,29.70,14,4,22,0.00
2013-5-4,81,73,68,71,68,65,100,86,60,29.81,29.68,13,8,21,0.00
2013-5-5,78,70,63,69,58,48,100,70,36,29.96,29.78,14,8,23,0.00
2013-5-6,78,69,62,66,60,54,100,75,47,30.02,29.91,12,6,21,0.00
2013-5-7,79,67,57,62,59,56,100,77,47,30.07,29.98,10,5,18,0.00
2013-5-8,81,70,60,67,61,56,100,77,43,30.14,30.04,9,4,16,0.00
2013-5-9,86,73,60,69,61,56,100,71,37,30.16,30.08,6,2,10,0.00
2013-5-10,91,76,65,77,66,-100,100,77,42,30.15,30.01,14,5,21,0.00
2013-5-11,87,77,68,80,72,68,100,86,54,30.08,29.99,12,4,22,0.00
2013-5-12,87,77,70,79,70,-100,100,84,53,30.05,29.96,11,5,20,0.00
2013-5-13,85,74,64,71,63,52,100,74,39,30.13,30.01,10,5,16,0.00
2013-5-14,84,71,58,62,55,42,100,64,24,30.20,30.11,9,5,16,0.00
2013-5-15,88,73,59,67,59,54,100,67,36,30.21,30.08,8,4,17,0.00
2013-5-16,89,71,64,68,42,-100,100,68,32,30.13,30.01,9,5,17,0.00
2013-5-17,90,75,64,71,57,-100,100,71,34,30.10,30.03,6,3,12,0.00
2013-5-18,93,80,69,76,67,56,100,71,30,30.11,29.99,8,3,16,0.00
2013-5-19,92,79,69,76,69,62,100,75,37,30.10,29.98,13,4,21,0.00
2013-5-20,92,76,67,76,70,65,100,85,42,30.09,29.97,23,4,49,0.00
2013-5-21,85,74,68,77,72,68,100,94,62,30.04,29.95,12,3,18,0.00
2013-5-22,87,75,68,77,71,67,100,89,53,29.98,29.90,9,2,13,0.00
2013-5-23,89,78,69,77,71,66,100,82,47,30.03,29.93,7,3,12,0.00
2013-5-24,94,81,71,79,68,54,100,72,27,30.09,29.99,10,4,16,0.00
2013-5-25,89,79,71,73,67,61,100,70,40,30.19,30.07,12,6,21,0.00
2013-5-26,88,76,63,67,61,48,100,67,27,30.22,30.11,9,4,19,0.00
2013-5-27,89,77,65,71,65,60,100,72,41,30.18,30.07,9,5,17,0.00
2013-5-28,89,76,68,77,72,68,100,90,53,30.15,30.05,12,6,24,0.00
2013-5-29,87,76,71,77,72,69,100,89,58,30.11,30.05,15,6,30,0.00
2013-5-30,87,78,72,77,72,67,100,82,57,30.10,30.02,13,7,29,0.00
2013-5-31,88,78,72,79,73,70,100,84,58,30.09,30.01,12,6,20,0.00
2013-6-1,90,78,73,78,74,72,100,88,57,30.06,29.95,14,5,20,0.00
2013-6-2,90,78,73,79,73,-100,100,90,51,30.01,29.91,11,3,18,0.00
2013-6-3,85,77,73,79,75,72,100,95,70,30.02,29.93,8,3,14,0.00
2013-6-4,84,77,74,77,74,70,100,90,67,30.04,29.96,11,4,16,0.00
2013-6-5,87,78,74,80,74,68,100,88,60,30.03,29.91,14,6,22,0.00
2013-6-6,78,75,73,78,75,73,100,100,97,29.93,29.71,20,10,36,0.00
2013-6-7,86,78,72,78,74,71,100,90,61,29.98,29.81,10,4,17,0.00
2013-6-8,90,76,72,79,74,72,100,95,62,30.11,29.97,15,3,27,0.00
2013-6-9,92,80,71,81,74,66,100,85,42,30.11,30.01,10,5,16,0.00
2013-6-10,92,80,74,80,75,69,100,86,50,30.09,30.00,13,4,21,0.00
2013-6-11,91,80,74,81,75,70,100,86,52,30.09,30.01,11,3,17,0.00
2013-6-12,96,81,71,78,72,66,100,79,39,30.09,30.01,9,2,26,0.00
2013-6-13,92,80,72,80,74,70,100,84,49,30.05,29.92,12,4,18,0.00
2013-6-14,89,81,74,79,73,69,100,80,55,29.96,29.87,11,6,19,0.00
2013-6-15,92,81,75,80,76,72,100,88,54,30.06,29.93,10,3,18,0.00
2013-6-16,95,82,75,81,75,67,100,82,41,30.09,30.01,9,4,14,0.00
2013-6-17,94,83,76,80,74,68,100,78,45,30.09,29.99,8,3,14,0.00
2013-6-18,92,82,74,79,74,69,100,81,49,30.08,29.98,8,3,16,0.00
2013-6-19,91,80,74,81,75,71,100,87,52,30.06,29.98,12,4,22,0.00
2013-6-20,93,80,73,78,74,71,100,83,53,30.09,30.01,10,4,16,0.00
2013-6-22,93,87,78,77,71,63,96,64,39,30.13,30.03,8,3,15,0.00
2013-6-23,93,80,74,80,75,69,100,87,46,30.16,30.06,14,4,22,0.00
2013-6-24,94,82,74,79,74,68,100,81,44,30.19,30.08,8,4,17,0.00
2013-6-25,94,83,74,78,74,69,100,76,46,30.16,30.03,9,4,17,0.00
2013-6-26,93,78,72,79,75,71,100,91,50,30.10,30.01,14,3,25,0.00
2013-6-27,94,80,72,79,73,68,100,82,47,30.07,29.96,8,2,15,0.00
2013-6-28,87,78,73,81,77,73,100,98,70,30.00,29.87,8,3,12,0.00
2013-6-29,87,79,75,80,76,71,100,91,62,29.91,29.82,15,5,26,0.00
2013-6-30,84,76,74,81,76,74,100,99,82,29.90,29.83,12,5,17,0.00
2013-7-1,78,74,72,78,74,72,100,100,100,30.01,29.88,12,6,20,0.00
2013-7-2,85,74,72,79,74,72,100,98,71,30.10,29.98,11,4,18,0.00
2013-7-3,89,77,72,82,75,72,100,94,62,30.14,30.07,23,5,34,0.00
2013-7-4,89,78,72,81,75,72,100,92,62,30.15,30.08,14,6,27,0.00
2013-7-5,92,78,74,81,76,74,100,95,58,30.16,30.07,14,5,23,0.00
2013-7-6,94,82,74,80,75,71,100,82,49,30.13,30.03,13,6,19,0.00
2013-7-7,92,82,75,81,76,73,100,83,54,30.14,30.03,12,4,23,0.00
2013-7-8,93,80,75,81,73,-100,100,87,51,30.15,30.07,8,3,13,0.00
2013-7-9,90,80,74,78,74,69,100,84,52,30.17,30.07,14,4,20,0.00
2013-7-10,91,78,73,78,70,-100,100,84,53,30.09,29.98,12,3,23,0.00
2013-7-11,89,79,73,78,75,71,100,88,58,30.04,29.95,7,4,12,0.00
2013-7-12,86,77,74,79,76,74,100,96,67,29.96,29.92,12,3,23,0.00
2013-7-13,88,78,73,80,75,73,100,94,62,30.01,29.92,10,4,17,0.00
2013-7-14,87,76,72,80,75,72,100,96,70,30.09,29.97,9,5,15,0.00
2013-7-15,89,77,72,78,74,71,100,91,57,30.11,30.01,11,3,17,0.00
2013-7-16,90,76,73,77,75,71,100,95,55,30.15,30.08,10,4,16,0.00
2013-7-17,90,77,74,80,75,73,100,94,63,30.15,30.07,21,4,38,0.00
2013-7-18,88,76,72,78,74,72,100,96,64,30.12,30.06,9,4,18,0.00
2013-7-19,90,76,71,78,73,71,100,92,57,30.13,30.03,9,4,14,0.00
2013-7-20,92,77,72,82,73,-100,100,90,55,30.11,30.01,21,2,33,0.00
2013-7-21,90,77,72,82,76,72,100,96,65,30.14,30.05,8,4,12,0.00
2013-7-22,89,77,74,81,76,74,100,97,66,30.14,30.07,8,3,11,0.00
2013-7-23,90,79,75,82,76,73,100,93,58,30.11,29.98,9,4,17,0.00
2013-7-24,88,81,75,80,76,73,100,85,62,30.02,29.91,12,6,20,0.00
2013-7-25,87,79,73,81,77,72,100,93,66,30.01,29.90,11,5,18,0.00
2013-7-26,90,80,76,80,77,74,100,90,61,30.02,29.95,7,3,11,0.00
2013-7-27,93,85,76,81,76,71,100,78,52,30.01,29.91,8,4,13,0.00
2013-7-28,93,79,74,80,76,72,100,92,52,30.07,29.95,8,2,14,0.00
2013-7-29,95,79,73,79,75,70,100,89,46,30.16,30.03,13,2,28,0.00
2013-7-30,95,83,74,82,75,71,100,82,48,30.19,30.09,11,3,17,0.00
2013-7-31,94,81,75,81,76,71,100,87,47,30.15,30.02,13,2,25,0.00
2013-8-1,94,80,74,78,75,69,100,87,44,30.08,29.96,8,2,13,0.00
2013-8-2,91,79,74,79,76,72,100,92,56,30.06,29.96,10,2,13,0.00
2013-8-3,90,79,75,81,76,74,100,94,64,30.11,30.02,8,3,14,0.00
2013-8-4,89,80,76,83,78,76,100,94,67,30.11,30.01,11,3,21,0.00
2013-8-5,91,81,77,82,78,75,100,92,61,30.04,29.94,10,4,17,0.00
2013-8-6,95,82,75,80,77,74,100,88,53,30.00,29.90,6,2,11,0.00
2013-8-7,95,82,76,82,77,72,100,87,49,29.98,29.91,16,3,25,0.00
2013-8-8,94,82,76,82,77,74,100,87,53,30.03,29.94,11,5,21,0.00
2013-8-9,95,80,74,82,76,69,100,90,45,30.06,29.97,9,4,17,0.00
2013-8-10,95,84,74,81,75,72,100,77,48,30.13,30.05,11,4,17,0.00
2013-8-11,96,84,75,82,76,70,100,79,43,30.17,30.06,7,3,12,0.00
2013-8-21,94,81,74,81,77,74,100,91,53,30.11,30.03,7,2,13,0.00
2013-8-22,94,80,74,81,77,74,100,92,55,30.09,30.00,16,2,33,0.00
2013-8-23,94,82,75,83,76,72,100,85,49,30.03,29.95,11,2,20,0.00
2013-8-24,94,80,75,81,76,72,100,88,52,30.11,30.01,8,1,14,0.00
2013-8-25,88,78,75,80,74,-100,100,90,66,30.16,30.09,10,2,15,0.00
2013-8-26,89,80,75,80,76,73,100,89,59,30.16,30.02,9,3,15,0.00
2013-8-27,92,80,74,80,74,69,100,86,50,30.08,29.99,9,4,18,0.00
2013-10-18,91,80,71,77,72,67,100,80,46,30.00,29.90,6,3,12,0.00
2013-10-19,90,79,73,77,74,69,100,86,50,29.97,29.88,8,3,14,0.00
2013-10-20,90,79,74,80,72,-100,100,85,55,29.98,29.89,8,2,17,0.00
2013-10-21,89,80,74,80,74,71,100,86,56,30.01,29.92,7,2,10,0.00
2013-10-22,89,78,72,78,74,72,100,88,61,29.96,29.83,10,4,17,0.00
2013-10-23,82,74,66,73,67,55,100,81,47,30.01,29.83,8,3,17,0.00
2013-10-24,74,67,61,63,58,51,92,72,56,30.16,30.01,10,6,15,0.00
2013-11-10,84,73,66,69,67,65,100,84,53,30.17,30.07,9,4,15,0.00
2013-11-11,85,73,66,69,68,65,100,85,51,30.16,30.06,8,4,14,0.00
2013-11-12,82,72,66,72,68,64,100,88,55,30.11,30.00,7,3,11,0.00
2013-11-13,68,62,55,67,56,52,97,80,63,30.29,30.07,19,10,30,0.00
2013-11-14,80,64,53,63,57,53,100,81,46,30.29,30.18,11,5,23,0.00
2013-11-15,79,69,62,69,65,61,100,88,59,30.19,30.08,9,3,15,0.00
2013-11-16,78,71,69,75,68,-100,100,95,79,30.13,30.03,12,2,17,0.00
2013-11-17,87,76,68,75,70,67,100,85,57,30.09,30.01,10,3,14,0.00
2013-12-13,78,64,51,62,56,47,100,78,49,30.26,30.12,10,5,16,0.00
2013-12-14,84,70,62,72,64,-100,100,87,62,30.13,29.96,16,5,24,0.00
2013-12-15,75,70,60,74,66,60,100,91,69,30.12,29.92,8,4,12,0.00
2013-12-16,66,58,51,60,52,48,100,83,52,30.24,30.12,9,5,13,0.00
2013-12-17,75,57,46,57,52,46,100,85,53,30.24,30.14,8,4,12,0.00
2013-12-18,72,59,47,52,48,43,100,70,38,30.28,30.20,11,4,18,0.00
2013-12-19,79,61,48,59,54,48,100,83,44,30.27,30.16,9,5,14,0.00
2013-12-20,84,69,59,68,64,59,100,84,56,30.20,30.09,14,5,19,0.00
2013-12-21,85,73,66,74,66,-100,100,84,61,30.15,30.03,17,8,26,0.00
2013-12-22,85,74,68,76,70,68,100,88,61,30.16,30.07,17,4,26,0.00
2013-12-23,85,74,68,78,70,68,100,90,61,30.19,30.09,9,4,16,0.00
2013-12-24,72,65,52,72,58,42,100,80,52,30.26,30.11,10,5,20,0.00
2013-12-26,80,66,59,66,62,59,100,87,51,30.21,30.09,11,4,15,0.00
2013-12-27,74,67,61,69,65,61,100,94,77,30.24,30.14,9,4,16,0.00
2013-12-28,82,70,65,73,66,-100,100,90,65,30.21,30.02,15,3,23,0.00
2013-12-29,78,71,63,77,70,63,100,99,80,30.02,29.90,11,4,22,0.00
2013-12-30,65,62,59,65,62,59,100,100,100,30.20,30.01,6,1,9,0.00
2013-12-31,68,63,58,60,56,52,100,80,57,30.30,30.16,10,4,17,0.00
2014-1-1,67,63,59,67,62,56,100,97,82,30.26,30.07,11,6,15,0.00
2014-1-2,81,70,62,75,67,62,100,92,65,30.07,29.85,17,5,30,0.00